SL-18 R/B

基本信息
目录编号:
22562
目录名称:
SL-18 R/B
国际标识:
1993-014B
轨道中心:
EARTH
物体状态:
在轨
发射日期:
1993-03-25 UTC
国别:
俄罗斯(独联体) (CIS)
轨道信息
数据来源: 国际轨道数据
星历时间: 2026-07-14T04:24:27+0800
半长轴: 7167.778km
偏心率: 0.0162237
轨道倾角: 75.761°
近地点辐角: 175.805°
升交点赤经: 123.933°
平近点角: 184.451°
近地点: 673.353km
远地点: 905.929km
周期: 100.655分钟
每日圈数: 14.306257
详细信息
发射场:
PKMTR
轨道高度:
LEO
数据来源:
AOE Integration Group
参考系:
TEME
时间系统:
UTC
历元类型:
SGP4
2D轨道图
3D轨道图
轨道高度分析图
轨道倾角分析图
轨道综合分析图
查看轨道综合分析图